Location: The Saddle
(36.8333°N, 80.3417°W)
Time: 08:21:14
(UTC-05:00)

S-56A Canister/Altair - Pass Details

Date: 12 December 2023
Orbit: 640 x 2488 km, 38.9° (Epoch: 25 February)

Event Time Altitude Azimuth Distance (km) Brightness Sun altitude
Rises 06:23:04 0° 192° (SSW) 5,051 11.8 -12.1°
Reaches altitude 10° 06:29:10 10° 168° (SSE) 3,580 11.4 -10.9°
Maximum altitude 06:32:37 13° 145° (SE) 3,078 11.5 -10.3°
Drops below altitude 10° 06:35:39 10° 121° (ESE) 3,034 12.2 -9.7°
Sets 06:39:51 0° 93° (E) 3,641 12.6 -8.9°
